Regional Weather Roundup
Issued by NWS Grand Forks, ND

Home | Current Version | Previous Version | Text Only | Print | Product List | Glossary On
Versions: 1 2 3 4 5 6 7 8 9 10 11 12 13 14 15 16 17 18 19 20 21 22 23 24 25 26 27 28 29 30 31 32 33 34 35 36 37 38 39 40 41 42 43 44 45 46 47 48 49 50
961
ASUS43 KFGF 210010
RWRFGF
PRAIRIE TO PINES  WEATHER ROUNDUP
NATIONAL WEATHER SERVICE EASTERN NORTH DAKOTA/GRAND FORKS ND
600 PM CST MON FEB 20 2017

 **SATELLITE DATA USED TO AUGMENT SKY COVER AT AUTOMATED STATIONS**
 *****  WEATHER ACROSS EASTERN NORTH DAKOTA  *****

CITY           SKY/WX    TMP DP  RH WIND       PRES   REMARKS
GRAND FORKS    MOCLDY    36  31  82 W3        29.67R
6HR MIN TEMP:  36; 6HR MAX TEMP:  37; 6HR PCP:  0.11;

GRAND FRKS AFB FAIR      36  35  97 W5        29.68R
DEVILS LAKE    FOG       32  32 100 W13       29.69R VSB 1/4 WCI  22
6HR MIN TEMP:  32; 6HR MAX TEMP:  35; 6HR PCP:  0.02;

FARGO          FAIR      38  36  92 W12       29.71R
WAHPETON ARPT  CLOUDY    37  34  87 W17       29.73R
$$

 ***** WEATHER ACROSS CENTRAL AND WESTERN NORTH DAKOTA  *****

CITY           SKY/WX    TMP DP  RH WIND       PRES   REMARKS
BISMARCK       FAIR      50  34  54 W3        29.74F
6HR MIN TEMP:  43; 6HR MAX TEMP:  52;

MINOT          FAIR      44  35  70 SW12      29.68R
6HR MIN TEMP:  40; 6HR MAX TEMP:  50;

JAMESTOWN      FAIR      39  35  86 W10       29.72R
6HR MIN TEMP:  35; 6HR MAX TEMP:  42; 6HR PCP:  0.04;

MINOT AFB      FAIR      37  33  84 W6        29.67S
GARRISON         N/A     41  34  76 CALM      29.70S
WILLISTON      FAIR      47  29  49 CALM      29.68S
6HR MIN TEMP:  41; 6HR MAX TEMP:  48;

DICKINSON      FAIR      45  26  47 SW7       29.70R
6HR MIN TEMP:  45; 6HR MAX TEMP:  53;

HETTINGER      FAIR      51  26  37 W3        29.75S
6HR MIN TEMP:  50; 6HR MAX TEMP:  56;

$$

 *****  OTHER AIRPORT OBSERVATIONS IN OUR AREA  *****

CITY           SKY/WX    TMP DP  RH WIND       PRES   REMARKS
WALHALLA       NOT AVBL
GRAFTON AIRPOR FAIR      36  36 100 W8        29.68R
VALLEY CITY AR FAIR      36  36 100 W9        29.74R FOG
CANDO          NOT AVBL
CAVALIER APRT  FAIR      36  32  87 W6        29.65R
GWINNER        FAIR      39  37  93 W9        29.75R
SHEYENNE NWR     N/A     39  35  84 NW6       29.95
ROLLA          FAIR      32  32 100 SW8       29.65R WCI  25
 ***** THE ABOVE OBSERVATIONS ARE NON NWS ARE NOT QUALITY
       CONTROLLED AND MAY MIS-REPORT RAIN FOR SNOW...
$$

  *****  WEATHER ACROSS NORTHERN MINNESOTA  *****

CITY           SKY/WX    TMP DP  RH WIND       PRES   REMARKS
FLAG ISLAND    LGT RAIN  37  37 100 W17       29.52S
WARROAD        LGT RAIN  36  30  80 W10       29.57R
ROSEAU         CLOUDY    34  30  86 W9        29.59R
HALLOCK        CLOUDY    36  34  93 W7        29.65R
THF RVR FALLS  CLOUDY    34  33  96 W14       29.65R WCI  25
6HR MIN TEMP:  34; 6HR MAX TEMP:  44; 6HR PCP:  0.09;

BAUDETTE       LGT RAIN  41  40  96 W12       29.53S FOG
6HR MIN TEMP:  40; 6HR MAX TEMP:  42; 6HR PCP:  0.34;

WASKISH        LGT RAIN  43  43 100 SW5       29.55R
CROOKSTON      MOCLDY    34  34 100 W10       29.69R
GREENBUSH NDAW   N/A     34  34 100 W8          N/A
$$
  *****  WEATHER ACROSS CENTRAL AND WEST MINNESOTA  *****

CITY           SKY/WX    TMP DP  RH WIND       PRES   REMARKS
FOSSTON        HVY RAIN  34  34 100 W6        29.63S
BEMIDJI        RAIN      39  39 100 W17       29.59R
PARK RAPIDS    LGT RAIN  39  37  92 W16       29.60R FOG
6HR MIN TEMP:  39; 6HR MAX TEMP:  47; 6HR PCP:  0.12;

ELBOW LAKE     CLOUDY    37  37 100 NW15      29.70R
WADENA         RAIN      39  37  93 W17G24    29.63R
DETROIT LAKES  CLOUDY    36  36 100 N9        29.65S FOG
MOORHEAD       CLOUDY    37  36  93 NW13      29.72R
FERGUS FALLS   CLOUDY    37  37 100 NW18      29.73R
MORRIS MN      CLOUDY    39  37  93 NW18      29.69R
STAPLES        DRZL/FOG  46  46 100 SW12G21   29.59R VSB 3/4
$$
  *****  WEATHER ELSEWHERE ACROSS MINNESOTA  *****

CITY           SKY/WX    TMP DP  RH WIND       PRES   REMARKS
DULUTH         LGT RAIN  42  42 100 S7        29.63F FOG
6HR MIN TEMP:  40; 6HR MAX TEMP:  42; 6HR PCP:  0.49;

INTRNTL FALLS  CLOUDY    43  41  93 S5        29.53F
6HR MIN TEMP:  42; 6HR MAX TEMP:  46; 6HR PCP:  0.51;

ELY            RAIN      41  39  93 S7        29.60S
CLOQUET        RAIN      37  37 100 SE5       29.62F VSB 1/2
WHEATON        FAIR      39  36  87 W16       29.75R
BRAINERD       CLOUDY    46  46 100 S7        29.57F FOG
6HR MIN TEMP:  46; 6HR MAX TEMP:  48; 6HR PCP:  0.49;

HIBBING        LGT RAIN  40  40 100 VRB5      29.58F FOG
6HR MIN TEMP:  39; 6HR MAX TEMP:  43; 6HR PCP:  0.44;

ALEXANDRIA     LGT RAIN  38  38 100 NW18G26   29.66R FOG
6HR MIN TEMP:  38; 6HR MAX TEMP:  51; 6HR PCP:  0.08;

SAINT CLOUD    FOG       48  48 100 S8        29.60R VSB 1/4
6HR MIN TEMP:  48; 6HR MAX TEMP:  49; 6HR PCP:  0.41;

MINNEAPOLIS    CLOUDY    53  50  89 S10       29.67F
6HR MIN TEMP:  49; 6HR MAX TEMP:  54; 6HR PCP:  0.51;

$$

  *****  WEATHER ACROSS SOUTH DAKOTA  *****

CITY           SKY/WX    TMP DP  RH WIND       PRES   REMARKS
SIOUX FALLS    FAIR      50  43  77 NW13      29.80R
6HR MIN TEMP:  50; 6HR MAX TEMP:  57; 6HR PCP: TRACE;

BROOKINGS      FAIR      46  41  82 W15       29.77R
WATERTOWN      FAIR      44  39  82 W13       29.76R
6HR MIN TEMP:  43; 6HR MAX TEMP:  51;

HURON          FAIR      50  42  74 NW10      29.81R
6HR MIN TEMP:  46; 6HR MAX TEMP:  57;

SISSETON         N/A     41  39  93 NW13      29.73R
ABERDEEN       FAIR      45  36  70 W17       29.79R
6HR MIN TEMP:  44; 6HR MAX TEMP:  51; 6HR PCP: TRACE;

MITCHELL       FAIR      54  40  59 NW12      29.83R
PIERRE         FAIR      53  30  41 NW9       29.80S
6HR MIN TEMP:  49; 6HR MAX TEMP:  60;

MOBRIDGE       FAIR      50  37  61 N3        29.75F
RAPID CITY     FAIR      61  19  19 SW8       29.79F
6HR MIN TEMP:  59; 6HR MAX TEMP:  64;

$$

  *****  SOME WEATHER IN NEARBY STATES *****

CITY           SKY/WX    TMP DP  RH WIND       PRES   REMARKS
GLASGOW MT     FAIR      48  32  53 MISG      29.60F
6HR MIN TEMP:  44; 6HR MAX TEMP:  54;

GREAT FALLS MT CLOUDY    46  33  60 W22G31    29.58R
6HR MIN TEMP:  46; 6HR MAX TEMP:  54;

CHEYENNE WY    FAIR      52  17  25 SW16G23   30.01R
6HR MIN TEMP:  49; 6HR MAX TEMP:  55;

SCOTTSBLUFF NE FAIR      61  22  22 W10G21    29.92R
6HR MIN TEMP:  55; 6HR MAX TEMP:  64;

OMAHA NE       MOCLDY    55  46  71 NW8       29.85R
6HR MIN TEMP:  55; 6HR MAX TEMP:  61; 6HR PCP: TRACE;

DES MOINES IA  CLOUDY    61  57  87 SW9       29.82R
6HR MIN TEMP:  60; 6HR MAX TEMP:  62; 6HR PCP:  0.02;

DAVENPORT IA   CLOUDY    68  52  56 S10       29.86R
6HR MIN TEMP:  63; 6HR MAX TEMP:  69; 6HR PCP: TRACE;

CHICAGO IL     CLOUDY    65  46  50 S16G25    29.96F
6HR MIN TEMP:  64; 6HR MAX TEMP:  70;

EAU CLAIRE WI  RAIN      51  51 100 SW9       29.73R FOG
6HR MIN TEMP:  47; 6HR MAX TEMP:  52; 6HR PCP:  0.78;

LA CROSSE WI   LGT RAIN  56  53  90 S17G26    29.77S FOG
6HR MIN TEMP:  52; 6HR MAX TEMP:  56; 6HR PCP:  0.44;

$$

  *****  SOME NATIONAL WEATHER *****

CITY           SKY/WX    TMP DP  RH WIND       PRES   REMARKS
LA GUARDIA NY  FAIR      48  13  24 NE15      30.29R
6HR MIN TEMP:  48; 6HR MAX TEMP:  55;

RALEIGH NC     MOCLDY    61  37  41 CALM      30.20S
6HR MIN TEMP:  61; 6HR MAX TEMP:  73;

ATLANTA GA     MOCLDY    69  45  41 SE5       30.13S
6HR MIN TEMP:  68; 6HR MAX TEMP:  74;

NEW ORLEANS LA CLOUDY    73  67  81 SE14      29.97S
6HR MIN TEMP:  73; 6HR MAX TEMP:  79;

OKLAHOMA CITY  FAIR      63  52  67 S7        29.89R
6HR MIN TEMP:  58; 6HR MAX TEMP:  65;

ALBUQUERQUE NM FAIR      60  26  27 N12G21    30.20R
6HR MIN TEMP:  50; 6HR MAX TEMP:  60;

SALT LAKE CITY PTSUNNY   55  35  47 S26G37    29.94F
6HR MIN TEMP:  51; 6HR MAX TEMP:  55;

LOS ANGELES CA CLOUDY    59  55  87 CALM      30.25R
6HR MIN TEMP:  54; 6HR MAX TEMP:  61;

BOISE ID       CLOUDY    52  41  66 NW5       29.80R
6HR MIN TEMP:  52; 6HR M



USA.gov is the U.S. government's official web portal to all federal, state and local government web resources and services.